Regional Weather Roundup
Issued by NWS Northern Indiana

Home | Current Version | Previous Version | Graphics & Text | Print | Product List | Glossary On
Versions: 1 2 3 4 5 6 7 8 9 10 11 12 13 14 15 16 17 18 19 20 21 22 23 24 25 26 27 28 29 30 31 32 33 34 35 36 37 38 39 40 41 42 43 44 45 46 47 48 49 50
000
ASUS43 KIWX 120600
RWRIWX

KIWX WEATHER ROUNDUP
NATIONAL WEATHER SERVICE NORTHERN INDIANA
200 AM EDT SAT JUL 12 2014

NOTE: "FAIR" INDICATES FEW OR NO CLOUDS BELOW 12,000 FEET WITH NO
SIGNIFICANT WEATHER AND/OR OBSTRUCTIONS TO VISIBILITY.

* THESE STATIONS ARE NOT UNDER NWS QUALITY CONTROL. THEY ALSO MAY NOT
  REPORT WEATHER SUCH AS PRECIPITATION OR FOG.

INZ001>027-120700-
NORTHERN INDIANA

CITY           SKY/WX    TMP DP  RH WIND       PRES   REMARKS
VALPARAISO     CLOUDY    69  62  78 SE3       30.15F
6HR MIN TEMP:  68; 6HR MAX TEMP:  74; 6HR PCP: TRACE;

SOUTH BEND     CLOUDY    71  60  68 S3        30.15F
6HR MIN TEMP:  71; 6HR MAX TEMP:  75; 6HR PCP: TRACE;

GOSHEN         CLOUDY    70  63  78 CALM      30.16F
6HR MIN TEMP:  69; 6HR MAX TEMP:  76; 6HR PCP: TRACE;

ANGOLA*        CLOUDY    66  57  72 CALM      30.18S
FORT WAYNE     CLOUDY    71  61  70 CALM      30.18S
6HR MIN TEMP:  70; 6HR MAX TEMP:  79;

PERU/GRISSOM   CLOUDY    70  67  91 SE3       30.17S
6HR MIN TEMP:  68; 6HR MAX TEMP:  78;


$$
INZ028>050-120700-
CENTRAL INDIANA

CITY           SKY/WX    TMP DP  RH WIND       PRES   REMARKS
LAFAYETTE      CLOUDY    69  62  78 CALM      30.15F
6HR MIN TEMP:  67; 6HR MAX TEMP:  78;

KOKOMO*        CLOUDY    66  63  88 CALM      30.18S
6HR MIN TEMP:  64; 6HR MAX TEMP:  77;

MUNCIE*        MOCLDY    68  62  81 N5        30.19R
6HR MIN TEMP:  67; 6HR MAX TEMP:  78;

INDIANAPOLIS   MOCLDY    69  60  73 SE7       30.16F
6HR MIN TEMP:  69; 6HR MAX TEMP:  78;


$$
MIZ043>046-050>051-056>058-064>065-071>073-077>080-120700-
SOUTHWEST LOWER MICHIGAN

CITY           SKY/WX    TMP DP  RH WIND       PRES   REMARKS
BATTLE CREEK   CLOUDY    70  60  70 S3        30.17S
6HR MIN TEMP:  69; 6HR MAX TEMP:  76;

BENTON HARBOR  CLOUDY    68  61  78 S5        30.13F
6HR MIN TEMP:  66; 6HR MAX TEMP:  71;

COLDWATER*     CLOUDY    68  64  85 S3        30.17S
6HR MIN TEMP:  67; 6HR MAX TEMP:  75;

HILLSDALE*     MOCLDY    64  63  95 CALM      30.19S
6HR MIN TEMP:  64; 6HR MAX TEMP:  75;

HOLLAND        PTCLDY    65  59  81 CALM      30.15S
6HR MIN TEMP:  64; 6HR MAX TEMP:  74;

GRAND RAPIDS   CLEAR     66  62  87 S5        30.15F
6HR MIN TEMP:  66; 6HR MAX TEMP:  77;

KALAMAZOO      MOCLDY    70  61  73 CALM      30.16F
6HR MIN TEMP:  67; 6HR MAX TEMP:  76; 6HR PCP: TRACE;

STURGIS*       CLOUDY    66  64  94 CALM      30.16F
THREE RIVERS*  CLOUDY    68  66  96 CALM      30.16F
6HR MIN TEMP:  67; 6HR MAX TEMP:  74;


$$
OHZ001>008-015>018-024>025-120700-
NORTHWEST OHIO

CITY           SKY/WX    TMP DP  RH WIND       PRES   REMARKS
DEFIANCE       MOCLDY    69  61  75 CALM      30.17F
6HR MIN TEMP:  68; 6HR MAX TEMP:  78; 6HR PCP: TRACE;

FINDLAY        CLOUDY    70  62  76 CALM      30.17F
6HR MIN TEMP:  70; 6HR MAX TEMP:  78;

TOLEDO EXPRESS CLOUDY    67  59  75 CALM      30.17F
6HR MIN TEMP:  67; 6HR MAX TEMP:  75;

TOLEDO METCALF MOCLDY    68  58  70 SE3       30.18F
6HR MIN TEMP:  66; 6HR MAX TEMP:  76;

LIMA           CLOUDY    71  64  78 CALM      30.18F
6HR MIN TEMP:  70; 6HR MAX TEMP:  80;


$$
&&



USA.gov is the U.S. government's official web portal to all federal, state and local government web resources and services.